sat.trackr.live / text

‹ back to catalog

STARLINK-4430

NORAD 53485 · 2022-099W

PAYLOAD ACTIVE UNKNOWN

§ Identity

Operator
Country
US
Launch date
2022-08-12
Launch site
AFWTR
Launch vehicle
Mass (kg)
RCS (m²)

Purposes: comms

External: N2YO · Heavens-Above · Gunter

§ Orbital elements

Epoch: 2026-05-25T02:13:06.313152Z

Period
95.64 min
Inclination
97.4493°
Eccentricity
0.0001553
Mean motion
15.05651740 rev/d
Perigee alt
548.4 km
Apogee alt
550.6 km
Semi-major
6,927.6 km
B*
6.2100e-5
RAAN
265.0642°
Arg perigee
158.7097°
Mean anomaly
201.4195°
Rev number
20,747

§ Raw data

STARLINK-44301 53485U 22099W   26145.09243418  .00000838  00000+0  62100-4 0  99972 53485  97.4493 265.0642 0001553 158.7097 201.4195 15.05651740207475

JSON: /api/v1/satellites/53485 · /tle

For live sub-satellite position, see the globe view (requires WebGL).

§ Visibility from observer

Set your observer location to see the next 7 days of passes ≥ 10°. The values pass through the URL so the page stays shareable.

No JS? Fill the form by hand. The geolocation button needs JavaScript.